LANDSAT 9

Last updated on Fri Oct 04 2024 00:02:26 GMT+0000 (Coordinated Universal Time)

1 49260U 21088A 24277.18833824 .00002497 00000+0 56417-3 0 9996 2 49260 98.2218 345.4377 0001367 90.8119 269.3236 14.57112007160423
UTC large
Height (km)
Speed (km/s)
/
Latitude / Longitude
Inclination (degrees)
Orbital Period (minutes)
Azimuth
Elevation
Range (km)
Doppler Factor

Next 0 passes for location: London (51.5072 / 0.1276)

Sorry there are no passes over London.